Time,TemperatureF,DewpointF,PressureIn,WindDirection,WindDirectionDegrees,WindSpeedMPH,WindSpeedGustMPH,Humidity,HourlyPrecipIn,Conditions,Clouds,dailyrainin,SoftwareType,DateUTC
2013-03-30 00:12:00,63.0,-99.9,-100.00,North,-999,-999.0,-999.0,-999,-99.99,,,-99.99,,2013-03-30 07:12:00,
2013-03-30 00:22:00,63.0,-99.9,-100.00,North,-999,-999.0,-999.0,-999,-99.99,,,-99.99,,2013-03-30 07:22:00,
2013-03-30 00:32:00,63.0,-99.9,-100.00,North,-999,-999.0,-999.0,-999,-99.99,,,-99.99,,2013-03-30 07:32:00,
2013-03-30 00:42:00,63.0,25.0,-100.00,North,-999,-999.0,-999.0,22,-99.99,,,0.00,,2013-03-30 07:42:00,
2013-03-30 02:03:00,-999.0,-99.9,-100.00,SSE,168,2.0,-999.0,-999,-99.99,,,-99.99,,2013-03-30 09:03:00,
2013-03-30 03:42:00,-999.0,-99.9,-100.00,West,264,1.0,-999.0,-999,-99.99,,,-99.99,,2013-03-30 10:42:00,
2013-03-30 03:53:00,-999.0,-99.9,-100.00,West,264,1.0,-999.0,-999,-99.99,,,-99.99,,2013-03-30 10:53:00,
2013-03-30 04:04:00,-999.0,-99.9,-100.00,West,264,1.0,-999.0,-999,-99.99,,,-99.99,,2013-03-30 11:04:00,
2013-03-30 04:13:00,-999.0,-99.9,-100.00,SSW,196,6.0,-999.0,-999,-99.99,,,-99.99,,2013-03-30 11:13:00,
2013-03-30 04:23:00,-999.0,-99.9,-100.00,SSW,208,9.0,-999.0,-999,-99.99,,,-99.99,,2013-03-30 11:23:00,
2013-03-30 04:33:00,-999.0,-99.9,-100.00,SSW,208,9.0,-999.0,-999,-99.99,,,-99.99,,2013-03-30 11:33:00,
2013-03-30 04:43:00,-999.0,-99.9,-100.00,SSW,208,9.0,-999.0,-999,-99.99,,,-99.99,,2013-03-30 11:43:00,
2013-03-30 04:53:00,-999.0,-99.9,-100.00,SSW,208,7.0,-999.0,-999,-99.99,,,-99.99,,2013-03-30 11:53:00,
2013-03-30 05:03:00,-999.0,-99.9,-100.00,SSW,208,7.0,-999.0,-999,-99.99,,,-99.99,,2013-03-30 12:03:00,
2013-03-30 05:12:00,60.0,25.0,-100.00,SW,219,7.0,-999.0,26,-99.99,,,-99.99,,2013-03-30 12:12:00,
2013-03-30 05:22:00,60.0,25.0,-100.00,SW,219,7.0,-999.0,26,-99.99,,,-99.99,,2013-03-30 12:22:00,
2013-03-30 05:33:00,-999.0,-99.9,-100.00,SSW,208,7.0,-999.0,-999,-99.99,,,-99.99,,2013-03-30 12:33:00,
2013-03-30 05:43:00,-999.0,-99.9,-100.00,SSW,208,7.0,-999.0,-999,-99.99,,,-99.99,,2013-03-30 12:43:00,
2013-03-30 05:54:00,-999.0,-99.9,-100.00,SSW,208,9.0,-999.0,-999,-99.99,,,-99.99,,2013-03-30 12:54:00,
2013-03-30 06:03:00,-999.0,-99.9,-100.00,SW,219,9.0,-999.0,-999,-99.99,,,-99.99,,2013-03-30 13:03:00,
2013-03-30 06:12:00,-999.0,-99.9,-100.00,SW,219,9.0,-999.0,-999,-99.99,,,-99.99,,2013-03-30 13:12:00,
2013-03-30 06:23:00,-999.0,-99.9,-100.00,SW,219,9.0,-999.0,-999,-99.99,,,-99.99,,2013-03-30 13:23:00,
2013-03-30 06:32:00,-999.0,-99.9,-100.00,SW,219,9.0,-999.0,-999,-99.99,,,-99.99,,2013-03-30 13:32:00,
2013-03-30 06:43:00,-999.0,-99.9,-100.00,SSW,208,9.0,-999.0,-999,-99.99,,,-99.99,,2013-03-30 13:43:00,
2013-03-30 06:53:00,-999.0,-99.9,-100.00,SSW,208,9.0,-999.0,-999,-99.99,,,-99.99,,2013-03-30 13:53:00,
2013-03-30 07:03:00,-999.0,-99.9,-100.00,SSW,208,9.0,-999.0,-999,-99.99,,,-99.99,,2013-03-30 14:03:00,
2013-03-30 07:12:00,-999.0,-99.9,-100.00,SSW,208,4.0,-999.0,-999,-99.99,,,-99.99,,2013-03-30 14:12:00,
2013-03-30 07:23:00,-999.0,-99.9,-100.00,SSW,208,4.0,-999.0,-999,-99.99,,,-99.99,,2013-03-30 14:23:00,
2013-03-30 07:33:00,-999.0,-99.9,-100.00,SSW,208,4.0,-999.0,-999,-99.99,,,-99.99,,2013-03-30 14:33:00,
2013-03-30 07:43:00,-999.0,-99.9,-100.00,SSW,208,4.0,-999.0,-999,-99.99,,,-99.99,,2013-03-30 14:43:00,
2013-03-30 07:53:00,-999.0,-99.9,-100.00,SW,219,4.0,-999.0,-999,-99.99,,,-99.99,,2013-03-30 14:53:00,
2013-03-30 08:03:00,-999.0,-99.9,-100.00,SW,219,4.0,-999.0,-999,-99.99,,,-99.99,,2013-03-30 15:03:00,
2013-03-30 08:13:00,-999.0,-99.9,-100.00,SSW,213,6.0,-999.0,26,-99.99,,,-99.99,,2013-03-30 15:13:00,
2013-03-30 08:23:00,-999.0,-99.9,-100.00,SSW,213,6.0,-999.0,26,-99.99,,,-99.99,,2013-03-30 15:23:00,
2013-03-30 08:34:00,-999.0,-99.9,-100.00,SSW,202,8.0,-999.0,-999,-99.99,,,-99.99,,2013-03-30 15:34:00,
2013-03-30 08:53:00,-999.0,-99.9,-100.00,SSW,202,6.0,-999.0,-999,-99.99,,,-99.99,,2013-03-30 15:53:00,
2013-03-30 09:04:00,-999.0,-99.9,-100.00,SSW,202,6.0,-999.0,-999,-99.99,,,-99.99,,2013-03-30 16:04:00,
2013-03-30 09:13:00,-999.0,-99.9,-100.00,SW,225,7.0,-999.0,-999,-99.99,,,-99.99,,2013-03-30 16:13:00,
2013-03-30 09:23:00,-999.0,-99.9,-100.00,SW,225,7.0,-999.0,-999,-99.99,,,-99.99,,2013-03-30 16:23:00,
2013-03-30 09:33:00,-999.0,-99.9,-100.00,SW,219,8.0,-999.0,-999,-99.99,,,-99.99,,2013-03-30 16:33:00,
2013-03-30 10:03:00,69.0,-99.9,-100.00,North,-999,-999.0,-999.0,-999,-99.99,,,-99.99,,2013-03-30 17:03:00,
2013-03-30 10:32:00,74.0,29.0,-100.00,North,-999,-999.0,-999.0,19,-99.99,,,-99.99,,2013-03-30 17:32:00,
2013-03-30 10:42:00,74.0,29.0,-100.00,North,-999,-999.0,-999.0,19,-99.99,,,-99.99,,2013-03-30 17:42:00,
2013-03-30 11:32:00,-999.0,-99.9,-100.00,North,11,5.0,-999.0,-999,-99.99,,,-99.99,,2013-03-30 18:32:00,
2013-03-30 11:33:00,-999.0,-99.9,-100.00,North,11,2.0,-999.0,-999,-99.99,,,-99.99,,2013-03-30 18:33:00,
2013-03-30 11:43:00,-999.0,-99.9,-100.00,North,11,2.0,-999.0,-999,-99.99,,,-99.99,,2013-03-30 18:43:00,
2013-03-30 11:53:00,-999.0,-99.9,-100.00,North,11,5.0,-999.0,-999,-99.99,,,-99.99,,2013-03-30 18:53:00,
2013-03-30 12:03:00,-999.0,-99.9,-100.00,North,11,5.0,-999.0,-999,-99.99,,,-99.99,,2013-03-30 19:03:00,
2013-03-30 12:13:00,-999.0,-99.9,-100.00,North,11,5.0,-999.0,-999,-99.99,,,-99.99,,2013-03-30 19:13:00,
2013-03-30 12:22:00,-999.0,-99.9,-100.00,North,11,5.0,-999.0,-999,-99.99,,,-99.99,,2013-03-30 19:22:00,
2013-03-30 12:42:00,79.0,30.0,-100.00,North,-999,-999.0,-999.0,16,-99.99,,,0.00,,2013-03-30 19:42:00,
2013-03-30 12:53:00,79.0,30.0,-100.00,North,-999,-999.0,-999.0,16,-99.99,,,0.00,,2013-03-30 19:53:00,
2013-03-30 13:02:00,-999.0,-99.9,-100.00,NNW,343,5.0,-999.0,-999,-99.99,,,-99.99,,2013-03-30 20:02:00,
2013-03-30 13:12:00,-999.0,-99.9,-100.00,NNW,343,5.0,-999.0,-999,-99.99,,,-99.99,,2013-03-30 20:12:00,
2013-03-30 13:22:00,-999.0,-99.9,-100.00,NNW,343,5.0,-999.0,-999,-99.99,,,-99.99,,2013-03-30 20:22:00,
2013-03-30 13:33:00,-999.0,-99.9,-100.00,NNE,33,5.0,-999.0,-999,-99.99,,,-99.99,,2013-03-30 20:33:00,
2013-03-30 13:43:00,-999.0,-99.9,-100.00,NNE,33,5.0,-999.0,-999,-99.99,,,-99.99,,2013-03-30 20:43:00,
2013-03-30 13:53:00,-999.0,-99.9,-100.00,NNE,33,5.0,-999.0,-999,-99.99,,,-99.99,,2013-03-30 20:53:00,
2013-03-30 14:03:00,-999.0,-99.9,-100.00,NNE,33,5.0,-999.0,-999,-99.99,,,-99.99,,2013-03-30 21:03:00,
2013-03-30 14:13:00,-999.0,-99.9,-100.00,ESE,118,4.0,-999.0,-999,-99.99,,,-99.99,,2013-03-30 21:13:00,
2013-03-30 14:23:00,-999.0,-99.9,-100.00,ESE,118,4.0,-999.0,-999,-99.99,,,-99.99,,2013-03-30 21:23:00,
2013-03-30 14:43:00,-999.0,-99.9,-100.00,North,5,4.0,-999.0,-999,-99.99,,,-99.99,,2013-03-30 21:43:00,
2013-03-30 14:53:00,-999.0,-99.9,-100.00,North,5,4.0,-999.0,-999,-99.99,,,-99.99,,2013-03-30 21:53:00,
2013-03-30 15:24:00,-999.0,-99.9,-100.00,North,5,4.0,-999.0,-999,-99.99,,,-99.99,,2013-03-30 22:24:00,
2013-03-30 15:33:00,-999.0,-99.9,-100.00,North,5,4.0,-999.0,-999,-99.99,,,-99.99,,2013-03-30 22:33:00,
2013-03-30 15:44:00,-999.0,-99.9,-100.00,NE,50,6.0,-999.0,-999,-99.99,,,-99.99,,2013-03-30 22:44:00,
2013-03-30 15:54:00,-999.0,-99.9,-100.00,NE,50,6.0,-999.0,-999,-99.99,,,-99.99,,2013-03-30 22:54:00,
2013-03-30 16:03:00,-999.0,-99.9,-100.00,NE,50,6.0,-999.0,-999,-99.99,,,-99.99,,2013-03-30 23:03:00,
2013-03-30 16:13:00,-999.0,-99.9,-100.00,NE,50,6.0,-999.0,-999,-99.99,,,-99.99,,2013-03-30 23:13:00,
2013-03-30 16:23:00,-999.0,-99.9,-100.00,NW,320,4.0,-999.0,-999,-99.99,,,-99.99,,2013-03-30 23:23:00,
2013-03-30 16:33:00,-999.0,-99.9,-100.00,NW,320,4.0,-999.0,-999,-99.99,,,-99.99,,2013-03-30 23:33:00,
2013-03-30 16:43:00,-999.0,-99.9,-100.00,NW,320,4.0,-999.0,-999,-99.99,,,-99.99,,2013-03-30 23:43:00,
2013-03-30 16:53:00,-999.0,-99.9,-100.00,NW,320,4.0,-999.0,-999,-99.99,,,-99.99,,2013-03-30 23:53:00,
2013-03-30 17:03:00,-999.0,-99.9,-100.00,SW,225,5.0,-999.0,-999,-99.99,,,-99.99,,2013-03-31 00:03:00,
2013-03-30 17:12:00,-999.0,-99.9,-100.00,SW,225,5.0,-999.0,-999,-99.99,,,-99.99,,2013-03-31 00:12:00,
2013-03-30 17:23:00,-999.0,-99.9,-100.00,SW,225,5.0,-999.0,-999,-99.99,,,-99.99,,2013-03-31 00:23:00,
2013-03-30 17:33:00,-999.0,-99.9,-100.00,SE,129,4.0,-999.0,-999,-99.99,,,-99.99,,2013-03-31 00:33:00,
2013-03-30 17:43:00,-999.0,-99.9,-100.00,SE,129,4.0,-999.0,-999,-99.99,,,-99.99,,2013-03-31 00:43:00,
2013-03-30 17:53:00,-999.0,-99.9,-100.00,SE,129,4.0,-999.0,-999,-99.99,,,-99.99,,2013-03-31 00:53:00,
2013-03-30 18:02:00,-999.0,-99.9,-100.00,South,180,6.0,-999.0,-999,-99.99,,,-99.99,,2013-03-31 01:02:00,
2013-03-30 18:12:00,-999.0,-99.9,-100.00,South,180,6.0,-999.0,-999,-99.99,,,-99.99,,2013-03-31 01:12:00,
2013-03-30 18:23:00,-999.0,-99.9,-100.00,SW,230,7.0,-999.0,-999,-99.99,,,-99.99,,2013-03-31 01:23:00,
2013-03-30 18:32:00,-999.0,-99.9,-100.00,SW,230,7.0,-999.0,-999,-99.99,,,-99.99,,2013-03-31 01:32:00,
2013-03-30 18:43:00,-999.0,-99.9,-100.00,SSW,202,7.0,-999.0,18,-99.99,,,-99.99,,2013-03-31 01:43:00,
2013-03-30 18:53:00,-999.0,-99.9,-100.00,SSW,202,7.0,-999.0,18,-99.99,,,-99.99,,2013-03-31 01:53:00,
2013-03-30 19:02:00,75.0,-99.9,-100.00,North,-999,-999.0,-999.0,-999,-99.99,,,-99.99,,2013-03-31 02:02:00,
2013-03-30 19:13:00,-999.0,-99.9,-100.00,South,174,5.0,-999.0,-999,-99.99,,,-99.99,,2013-03-31 02:13:00,
2013-03-30 19:22:00,-999.0,-99.9,-100.00,South,174,5.0,-999.0,-999,-99.99,,,-99.99,,2013-03-31 02:22:00,
2013-03-30 19:33:00,-999.0,-99.9,-100.00,South,174,5.0,-999.0,-999,-99.99,,,-99.99,,2013-03-31 02:33:00,
2013-03-30 20:02:00,71.0,-99.9,-100.00,North,-999,-999.0,-999.0,-999,-99.99,,,-99.99,,2013-03-31 03:02:00,
2013-03-30 20:33:00,-999.0,-99.9,-100.00,SW,225,4.0,-999.0,-999,-99.99,,,-99.99,,2013-03-31 03:33:00,
2013-03-30 20:44:00,68.0,-99.9,-100.00,North,-999,-999.0,-999.0,-999,-99.99,,,-99.99,,2013-03-31 03:44:00,
2013-03-30 20:54:00,68.0,-99.9,-100.00,North,-999,-999.0,-999.0,-999,-99.99,,,-99.99,,2013-03-31 03:54:00,
2013-03-30 21:03:00,68.0,-99.9,-100.00,North,-999,-999.0,-999.0,-999,-99.99,,,-99.99,,2013-03-31 04:03:00,
2013-03-30 21:42:00,65.0,29.0,-100.00,North,-999,-999.0,-999.0,26,-99.99,,,-99.99,,2013-03-31 04:42:00,
2013-03-30 21:53:00,-999.0,-99.9,-100.00,SSW,208,3.0,-999.0,-999,-99.99,,,-99.99,,2013-03-31 04:53:00,
2013-03-30 22:02:00,-999.0,-99.9,-100.00,SSW,208,3.0,-999.0,-999,-99.99,,,-99.99,,2013-03-31 05:02:00,
2013-03-30 22:13:00,-999.0,-99.9,-100.00,SSW,213,7.0,-999.0,-999,-99.99,,,-99.99,,2013-03-31 05:13:00,
2013-03-30 22:22:00,-999.0,-99.9,-100.00,SSW,213,7.0,-999.0,-999,-99.99,,,-99.99,,2013-03-31 05:22:00,
2013-03-30 22:32:00,-999.0,-99.9,-100.00,SSW,202,8.0,-999.0,-999,-99.99,,,-99.99,,2013-03-31 05:32:00,
2013-03-30 22:42:00,-999.0,-99.9,-100.00,SSW,202,8.0,-999.0,-999,-99.99,,,-99.99,,2013-03-31 05:42:00,
2013-03-30 23:12:00,-999.0,-99.9,-100.00,SSW,213,8.0,-999.0,-999,-99.99,,,-99.99,,2013-03-31 06:12:00,
2013-03-30 23:23:00,-999.0,-99.9,-100.00,SSW,213,8.0,-999.0,-999,-99.99,,,-99.99,,2013-03-31 06:23:00,
2013-03-30 23:33:00,-999.0,-99.9,-100.00,SSW,213,7.0,-999.0,-999,-99.99,,,-99.99,,2013-03-31 06:33:00,
2013-03-30 23:42:00,-999.0,-99.9,-100.00,SSW,213,7.0,-999.0,-999,-99.99,,,-99.99,,2013-03-31 06:42:00,
2013-03-30 23:53:00,-999.0,-99.9,-100.00,SSW,208,8.0,-999.0,-999,-99.99,,,-99.99,,2013-03-31 06:53:00,